This is the latest recevied weather packets stored in our database for station/object KI6SYE. If no packets are shown the sender has not sent any weather packets the latest 10 day(s).
| Time | Temp. | Humidity | Pressure | Rain* | Wind** | Luminosity | Snow |
|---|---|---|---|---|---|---|---|
| 1777854256 | 16.11° C | 78% | 1012.9 hPa | 0 mm | - | 144 W/m² | - |
| 1777853953 | 16.11° C | 78% | 1013.1 hPa | 0 mm | - | 160 W/m² | - |
| 1777853651 | 16.67° C | 77% | 1013.3 hPa | 0 mm | - | 164 W/m² | - |
| 1777853347 | 16.67° C | 78% | 1013 hPa | 0 mm | - | 159 W/m² | - |
| 1777853044 | 16.67° C | 78% | 1012.9 hPa | 0 mm | - | 181 W/m² | - |
| 1777852741 | 16.67° C | 77% | 1012.8 hPa | 0 mm | - | 203 W/m² | - |
| 1777852439 | 16.67° C | 78% | 1012.8 hPa | 0 mm | - | 212 W/m² | - |
| 1777852136 | 16.67° C | 78% | 1012.9 hPa | 0 mm | - | 211 W/m² | - |
| 1777851834 | 16.67° C | 78% | 1013.1 hPa | 0 mm | - | 208 W/m² | - |
| 1777851531 | 16.11° C | 79% | 1013.1 hPa | 0 mm | - | 210 W/m² | - |
| 1777851228 | 16.67° C | 78% | 1012.8 hPa | 0 mm | - | 225 W/m² | - |
| 1777850924 | 16.67° C | 79% | 1012.7 hPa | 0 mm | - | 232 W/m² | - |
| 1777850622 | 16.67° C | 80% | 1013.2 hPa | 0 mm | - | 252 W/m² | - |
| 1777850319 | 16.11° C | 80% | 1013.2 hPa | 0 mm | - | 222 W/m² | - |
| 1777850016 | 16.11° C | 81% | 1013.3 hPa | 0 mm | - | 243 W/m² | - |
| 1777849712 | 16.67° C | 80% | 1013.1 hPa | 0 mm | - | 264 W/m² | - |
| 1777849409 | 16.67° C | 81% | 1013.1 hPa | 0 mm | - | 264 W/m² | - |
| 1777849107 | 16.67° C | 80% | 1013.3 hPa | 0 mm | - | 257 W/m² | - |
| 1777848802 | 17.22° C | 78% | 1013.1 hPa | 0 mm | - | 264 W/m² | - |
| 1777848498 | 17.22° C | 75% | 1013.3 hPa | 0 mm | - | 257 W/m² | - |
| 1777848196 | 17.22° C | 75% | 1013.6 hPa | 0 mm | - | 273 W/m² | - |
| 1777847894 | 17.22° C | 75% | 1013.6 hPa | 0 mm | - | 275 W/m² | - |
| 1777847591 | 17.22° C | 75% | 1013.5 hPa | 0 mm | - | 273 W/m² | - |
| 1777847287 | 17.22° C | 75% | 1013.5 hPa | 0 mm | - | 275 W/m² | - |
| 1777846985 | 17.22° C | 75% | 1013.6 hPa | 0 mm | - | 288 W/m² | - |
* Rain latest hour (hover to see other rain measurements)
** Current wind speed in m/s (hover to see current wind gust speed)